Wind_Speed
22 22 22 22 23 23 23 22 22 22 22 22 22 21 21 21 21 21 22 22 23 23 24 24 25 25 26 26 26 27 26 26 26 26 27 27 26 26 25 24 23 22 21 21 20 19 19 18 18 18 18 17 18 18 18 18 19 19 20 21 21 20 19 18 11 10 21 19 17 28 37 41 34 30 34 30 25 23 25 26 30 35 35 34 33 32 30 31
23 23 23 23 23 23 23 23 23 23 23 22 21 21 21 20 21 21 22 22 23 23 23 24 24 24 25 25 25 26 26 25 25 25 26 26 26 25 25 24 23 22 21 21 20 20 19 18 18 17 17 17 17 18 18 18 18 19 20 21 21 19 19 15 8 16 30 29 30 33 38 36 23 18 26 27 22 22 26 28 33 37 35 34 35 36 34 32
24 24 24 23 23 23 23 23 23 23 23 22 21 21 20 21 21 22 22 22 22 22 23 23 23 23 24 24 24 24 25 25 25 25 25 25 25 25 24 24 23 22 22 21 20 20 19 18 18 17 18 18 17 18 19 18 17 19 20 20 19 16 15 12 15 31 40 38 38 39 39 32 23 24 25 24 22 22 25 26 31 36 36 35 37 38 36 33
24 24 24 24 24 23 23 23 23 23 22 22 21 20 20 21 21 21 21 21 21 21 21 21 22 22 22 23 23 23 24 24 24 24 24 25 25 25 24 24 23 23 22 21 20 20 20 19 19 18 19 18 18 19 19 18 17 18 19 19 16 14 15 18 24 35 38 37 35 36 36 27 27 32 25 22 23 22 23 22 25 31 35 35 35 37 36 35
24 24 24 24 24 24 23 23 23 22 22 21 20 20 21 21 21 20 20 20 20 19 20 20 20 21 21 21 22 22 22 23 23 23 24 24 24 24 24 24 23 23 23 22 22 21 20 20 20 19 19 19 19 19 19 18 18 18 19 18 17 19 24 27 31 34 29 26 25 26 28 26 30 30 22 23 23 21 23 19 19 26 32 33 32 34 34 33
24 24 24 24 24 24 23 23 22 22 21 21 20 20 20 20 19 19 19 19 19 19 19 19 19 19 19 20 20 21 21 20 20 21 22 23 24 24 24 24 24 24 23 23 23 22 21 21 20 20 20 20 20 20 20 19 19 19 20 19 18 22 28 28 31 34 29 22 21 22 25 29 30 24 23 26 21 24 30 28 27 28 30 30 28 30 31 30
24 24 24 24 24 23 23 22 21 21 21 20 20 20 19 18 18 17 17 18 17 17 17 17 17 17 18 18 19 19 20 19 19 20 20 21 22 23 23 23 23 23 23 23 23 22 22 21 21 21 21 21 21 22 21 21 22 21 19 20 21 24 28 29 29 29 26 22 20 23 26 28 25 20 25 26 23 29 32 30 30 30 29 28 24 25 28 28
24 24 24 24 23 23 22 21 21 20 20 20 20 19 18 17 16 16 16 16 16 16 15 15 15 15 16 16 17 18 18 18 19 19 19 20 21 21 22 22 22 22 22 22 22 23 22 22 23 22 21 21 23 24 23 23 23 21 20 21 24 27 27 28 27 25 24 23 20 22 24 24 23 22 24 23 25 30 30 27 27 29 30 28 25 25 26 26
24 23 23 23 23 22 21 20 20 20 20 20 19 18 17 16 15 15 15 15 14 14 13 13 13 14 14 15 16 16 16 17 17 18 18 19 19 20 20 20 20 20 21 21 21 22 22 23 22 22 23 22 24 24 24 24 23 23 23 24 26 26 26 25 24 24 25 21 19 21 21 21 22 22 21 24 28 28 27 28 27 29 30 29 27 25 24 25
23 23 22 22 22 21 20 20 20 20 20 19 18 17 16 15 15 15 14 14 13 12 12 12 12 13 13 14 14 15 15 15 16 17 17 17 17 18 18 18 19 19 20 20 21 21 22 22 22 22 21 21 24 24 23 22 23 26 24 23 25 25 24 23 23 25 24 21 20 21 20 21 23 20 19 26 29 23 25 31 30 28 27 27 26 25 24 24
22 22 21 21 21 20 19 19 19 19 19 18 17 16 16 16 15 15 15 14 13 12 11 11 11 12 12 13 14 13 14 14 14 15 15 15 16 16 16 17 17 18 18 19 20 20 21 21 20 20 20 22 23 22 22 22 23 26 23 20 23 24 24 23 23 25 23 23 23 22 20 22 21 16 19 28 26 19 25 32 30 27 24 23 24 24 24 25
22 21 21 20 20 19 19 19 19 19 18 17 16 16 16 16 16 16 15 15 14 12 12 11 11 11 11 12 13 12 12 13 13 13 13 13 14 14 15 15 16 16 17 18 18 18 18 18 18 20 21 19 19 19 21 22 23 24 21 20 22 23 24 23 23 24 23 24 25 23 21 23 22 17 22 30 24 20 28 29 28 27 22 21 23 23 24 25
21 20 20 19 19 19 18 18 18 18 17 16 16 16 16 16 16 16 16 15 14 13 12 12 11 11 11 11 11 12 12 12 12 12 12 12 13 13 14 14 15 15 16 16 16 16 16 16 16 18 18 15 18 20 17 18 19 20 20 20 21 22 22 22 24 24 22 24 28 25 19 19 20 19 26 32 26 24 29 28 27 26 22 18 19 20 21 21
20 20 19 19 18 18 18 18 18 18 17 17 17 17 17 17 16 16 16 15 14 14 13 13 12 11 11 10 10 11 11 12 12 13 12 12 12 13 13 13 14 14 14 14 14 14 14 14 14 15 16 16 19 17 14 16 16 17 17 16 19 17 14 19 26 23 17 24 30 25 16 14 10 13 27 32 25 24 26 28 28 26 23 17 16 18 18 18
19 19 19 18 19 18 18 18 18 18 18 18 18 17 17 16 16 16 16 15 15 14 14 14 13 12 12 11 11 11 11 11 12 12 13 13 13 13 13 13 13 13 13 13 13 13 13 13 13 14 15 16 17 15 14 14 14 15 14 14 12 4 5 18 26 19 12 23 31 23 15 11 6 11 28 28 19 18 20 24 28 27 25 19 17 19 18 16
19 19 18 19 19 19 19 18 19 19 19 19 19 18 17 16 17 16 16 16 15 15 14 14 14 13 13 12 11 12 11 11 10 11 12 12 13 13 13 13 12 12 12 13 13 13 13 13 13 14 14 14 14 13 13 12 11 11 10 11 4 8 5 18 24 20 9 17 27 23 13 7 7 22 33 31 22 18 16 20 27 28 25 20 19 19 17 15
18 18 19 19 19 19 19 19 20 20 21 21 20 19 18 17 17 17 16 16 16 15 15 15 14 14 14 13 12 13 12 11 11 10 11 11 12 13 13 13 12 12 12 12 12 12 12 12 13 13 13 13 13 12 11 6 4 8 8 7 7 10 8 12 18 22 10 16 21 20 14 14 13 29 34 32 28 25 24 24 27 29 26 22 18 18 19 19
18 18 19 19 19 20 19 20 20 21 21 21 21 20 19 18 18 17 17 16 16 16 16 15 15 15 14 13 13 13 12 12 11 11 11 11 12 12 12 12 12 12 12 12 12 12 12 12 12 12 12 11 9 7 5 5 3 10 11 7 5 12 11 10 16 19 9 12 17 14 17 19 14 24 30 32 32 30 27 25 26 28 30 26 20 19 20 21
18 18 19 19 20 20 20 20 20 21 22 22 22 21 21 20 19 19 18 17 17 16 16 16 16 16 15 14 13 12 12 12 12 12 12 11 11 12 12 12 12 12 12 12 12 11 11 11 12 12 12 11 10 10 10 10 14 20 18 9 8 11 12 12 16 17 10 7 9 10 13 14 12 15 20 22 27 29 22 21 24 26 29 28 25 23 20 20
18 18 19 20 20 20 20 21 21 21 22 22 23 22 22 21 21 20 18 18 17 17 17 17 16 17 17 15 13 13 13 13 13 13 12 12 12 12 12 12 13 13 13 13 13 12 11 12 13 13 13 11 12 13 11 11 15 20 18 9 9 9 9 13 17 21 19 12 9 7 9 14 16 14 14 13 20 25 19 18 21 23 27 27 28 29 25 24
18 19 19 19 20 20 20 20 21 21 22 22 23 23 22 22 21 20 19 19 18 17 17 17 17 18 18 16 14 14 14 14 14 13 12 12 12 12 12 12 12 13 13 14 13 11 12 12 13 14 13 11 11 13 11 9 14 19 16 11 10 9 8 13 18 21 23 20 15 12 15 15 14 12 15 14 14 19 18 16 18 21 26 26 27 30 31 30
19 19 20 20 20 20 20 20 20 20 21 22 22 22 22 22 21 20 20 19 18 18 18 18 17 18 19 17 16 15 15 16 15 14 13 12 13 13 13 13 13 13 13 14 13 10 11 12 12 15 14 14 13 13 13 14 16 19 17 14 14 12 9 15 22 21 22 22 15 12 16 13 13 17 18 17 17 21 22 19 20 20 23 25 26 29 33 33
19 19 20 20 20 20 20 20 20 20 20 20 21 21 21 21 21 21 21 20 19 19 18 18 18 19 19 18 17 17 18 18 16 15 14 13 15 14 13 13 13 14 13 13 13 11 10 10 14 16 14 16 17 15 15 15 16 19 18 16 14 10 9 14 22 23 24 26 18 13 14 14 18 20 17 18 21 24 22 20 22 22 21 22 23 27 32 33
19 19 19 19 19 20 19 19 19 20 20 20 20 20 20 21 21 21 21 20 20 19 19 19 19 20 20 20 18 18 19 20 19 18 16 15 16 13 13 15 14 14 13 12 13 12 9 11 16 15 11 13 16 16 16 16 17 18 17 17 15 9 9 12 20 24 25 26 20 16 17 17 18 17 14 16 20 24 23 23 24 23 22 21 22 25 29 31
18 19 19 18 18 18 19 19 19 19 20 20 20 20 20 20 20 21 21 21 21 21 21 21 20 21 23 21 18 18 21 19 18 18 17 15 14 15 15 15 15 14 11 10 12 10 9 16 19 15 12 12 13 15 16 17 18 18 18 18 17 16 16 17 20 24 22 19 16 16 17 17 19 18 14 15 20 24 23 20 20 22 22 22 21 23 26 28
18 18 19 19 19 18 19 19 18 19 20 20 20 20 21 20 20 20 21 21 21 20 20 19 19 20 20 19 17 19 19 17 18 20 18 15 15 17 16 14 14 14 11 9 11 10 13 22 20 14 13 14 14 16 17 18 18 18 19 20 21 23 23 23 23 23 20 16 15 18 18 17 18 14 11 13 15 20 21 17 17 21 23 23 23 23 24 26
20 20 19 19 20 20 20 20 19 20 20 20 21 21 20 20 20 20 21 21 20 20 19 18 16 14 15 16 15 15 14 15 21 22 18 16 16 17 16 15 13 11 13 14 14 14 18 22 20 14 13 14 14 16 16 18 19 20 21 22 23 23 23 25 26 25 24 21 21 23 22 21 21 16 15 16 15 19 23 21 19 19 20 22 23 23 25 26
22 22 21 21 21 21 21 21 20 20 21 21 21 21 21 20 19 19 19 19 19 19 19 18 14 13 16 17 13 13 14 15 19 19 17 15 15 15 14 15 12 9 14 17 15 19 20 21 21 16 14 14 16 16 17 17 18 21 23 23 24 22 22 24 25 25 26 26 26 25 24 25 24 21 19 20 22 24 24 23 22 19 17 19 21 23 25 25
22 22 23 23 23 23 23 22 21 20 20 20 20 21 21 19 19 19 18 19 18 17 18 18 15 16 19 18 15 15 16 15 15 18 19 15 14 14 14 15 13 14 15 13 14 17 19 22 21 16 14 16 14 13 15 16 16 19 22 21 21 20 20 21 23 23 24 26 25 22 22 23 22 21 17 19 24 23 21 22 24 23 22 23 25 23 22 22
21 21 22 23 24 24 23 22 21 20 19 19 18 18 18 18 17 17 18 20 16 15 18 17 15 17 17 15 15 16 16 16 18 20 19 16 14 14 16 16 15 18 18 15 15 15 15 21 21 15 15 17 15 13 15 18 18 19 21 19 18 18 19 21 23 22 23 25 23 19 19 22 22 18 14 16 22 21 19 21 24 25 26 27 25 21 21 24
21 21 22 23 23 23 22 20 19 18 18 18 17 17 17 16 16 16 17 17 15 17 20 17 17 20 17 15 15 15 16 17 19 20 18 16 16 15 16 17 16 18 19 16 16 16 15 18 19 17 17 18 19 19 19 19 18 18 19 18 17 17 19 23 23 22 23 24 21 16 15 19 22 19 15 19 23 22 22 23 23 24 26 26 22 21 23 26
22 22 22 23 23 23 22 20 19 19 18 18 18 18 17 17 17 16 15 14 15 17 17 16 18 19 17 15 14 13 15 15 16 18 17 15 16 16 16 17 16 16 16 14 15 17 16 14 14 16 17 18 20 20 19 18 18 19 19 18 19 19 21 23 22 21 22 22 19 17 16 18 19 17 18 22 24 24 25 26 26 25 25 24 23 24 26 26
24 23 23 24 24 23 23 21 21 21 20 19 19 18 18 18 16 14 14 16 15 14 13 13 14 15 14 12 11 13 15 14 13 16 15 12 13 15 15 16 15 13 14 14 13 14 14 12 11 11 12 16 17 16 12 10 15 18 17 17 20 22 22 21 19 19 19 17 16 16 17 19 17 14 17 22 23 23 24 26 27 28 27 25 26 28 28 26
26 25 25 25 24 24 24 23 23 22 21 21 20 20 21 19 15 15 17 18 16 14 14 13 12 13 14 11 10 14 15 13 14 16 13 12 12 12 13 15 13 12 14 15 13 12 11 9 8 7 6 10 12 13 12 9 11 14 14 16 18 20 20 18 17 16 15 15 14 15 15 16 17 16 18 21 22 20 21 23 25 25 26 26 27 28 27 27
27 27 26 26 26 26 25 24 24 23 23 22 21 22 22 19 16 15 15 16 17 17 16 14 13 14 14 11 12 15 15 13 15 17 14 13 13 13 13 13 13 14 13 12 11 12 12 8 6 7 10 10 9 10 13 13 10 8 11 14 14 15 18 18 18 17 17 18 17 17 16 15 17 18 19 22 22 21 23 23 23 25 26 27 27 29 29 28
29 28 27 26 27 27 26 25 25 24 24 23 23 23 22 18 17 15 12 14 17 18 18 16 16 17 15 14 15 16 17 16 16 17 14 13 14 14 13 13 15 16 13 11 10 13 14 8 5 9 13 13 12 11 13 12 11 12 11 10 11 15 17 17 18 19 20 21 20 20 19 19 20 20 22 23 22 24 26 25 26 27 28 28 28 29 28 28
30 29 28 27 27 27 27 27 26 25 25 25 25 23 20 18 18 17 14 14 18 19 18 17 17 16 15 17 17 16 18 20 20 19 15 14 14 13 12 14 18 19 17 16 17 18 18 12 11 12 9 10 14 15 13 12 12 13 11 7 11 14 14 15 16 16 18 19 18 18 19 19 20 21 24 23 22 23 24 24 25 25 25 26 26 26 26 26
30 29 28 28 28 28 28 27 27 27 26 26 25 22 21 19 19 19 16 15 18 20 18 17 18 17 17 18 18 18 19 20 20 17 14 14 15 16 15 14 17 18 19 20 19 21 22 18 18 17 7 6 12 13 13 13 12 13 12 11 12 12 11 14 16 17 18 18 17 17 18 18 18 20 22 22 20 20 22 23 23 22 23 23 23 23 24 24
29 29 28 29 28 27 28 28 29 28 27 27 25 22 21 20 19 21 19 19 20 20 19 17 18 20 21 19 19 18 18 19 18 15 13 14 17 20 19 17 19 21 21 20 20 23 26 24 22 20 12 9 12 13 12 12 11 12 15 16 16 16 15 14 16 17 17 17 18 17 16 15 17 19 20 22 22 21 22 23 22 24 25 22 21 22 24 24
25 27 28 27 26 27 29 29 30 30 28 27 25 23 22 21 21 19 19 24 25 22 21 20 19 21 22 22 22 20 18 19 19 17 15 17 22 25 23 22 24 25 23 21 22 24 27 26 23 20 17 16 15 14 14 13 11 11 14 15 14 15 16 17 18 19 18 19 20 20 17 15 17 20 20 21 22 22 22 22 23 27 25 22 22 24 24 26
21 24 26 25 23 26 29 30 30 29 29 28 26 25 23 24 25 22 20 25 26 24 26 27 25 24 22 23 25 24 22 22 22 21 19 19 22 23 24 26 26 24 24 22 22 26 28 27 24 21 20 20 18 16 15 16 17 16 15 15 13 13 16 19 19 17 18 20 20 20 19 19 21 22 22 23 24 24 24 23 27 29 23 20 24 26 26 26
20 23 25 22 22 26 28 29 29 29 29 28 27 26 26 27 28 27 26 25 23 23 28 30 30 30 28 27 26 24 25 26 24 24 22 20 20 20 24 29 27 25 27 24 23 29 30 27 25 23 23 25 23 19 15 16 18 19 18 18 18 19 21 22 22 20 21 24 22 21 22 24 26 25 24 27 28 27 26 25 30 32 25 23 27 26 25 26
21 23 22 19 21 25 25 27 28 29 29 28 27 27 27 28 28 28 27 26 24 24 26 29 33 34 33 32 31 27 26 27 26 25 23 18 19 21 26 31 29 26 27 26 27 32 31 27 26 26 26 28 27 23 22 23 25 24 25 26 25 25 26 26 26 27 28 29 27 27 28 29 30 28 27 29 29 29 28 29 34 37 32 28 29 29 28 29
23 24 22 18 19 22 24 25 26 27 28 27 28 29 28 29 30 29 27 26 26 24 26 31 34 33 33 35 36 33 31 30 29 29 25 18 18 24 29 33 33 28 27 29 30 31 30 28 29 29 29 30 29 27 24 22 22 23 27 31 30 30 31 30 30 33 33 33 32 31 31 32 33 32 31 30 30 30 30 32 37 39 35 32 32 32 32 32
23 25 25 23 21 21 23 24 25 27 27 26 28 28 29 30 31 30 30 29 27 25 28 32 33 33 33 34 37 38 36 34 32 32 28 22 24 32 34 36 36 31 31 34 32 30 31 32 32 32 32 31 30 28 23 20 22 25 29 32 30 29 29 29 31 34 33 32 32 31 31 32 33 34 34 34 34 34 32 34 39 40 36 35 36 35 35 35
24 25 26 26 23 21 22 24 25 27 26 26 28 28 28 30 30 31 32 32 32 33 33 33 32 33 34 33 36 38 36 35 36 36 33 28 30 38 42 42 41 36 35 37 35 32 34 35 34 34 35 34 33 32 29 29 31 32 33 33 31 30 30 30 32 34 33 33 32 31 32 33 33 34 36 36 36 37 36 36 40 42 39 38 39 38 39 40
26 25 25 25 23 21 20 22 23 24 25 28 30 30 29 29 30 31 31 30 33 37 38 36 35 35 35 34 35 36 33 33 35 36 36 33 30 36 43 45 44 41 37 37 36 35 36 36 36 36 36 36 36 35 35 35 35 36 36 36 36 37 38 38 39 38 38 39 37 34 35 35 34 35 38 38 37 39 39 36 37 41 41 40 40 39 38 39
27 26 25 25 24 23 23 23 22 21 23 26 28 29 29 28 29 30 30 29 31 34 34 35 37 36 36 36 37 38 36 35 35 35 37 37 34 36 41 44 44 42 38 37 38 38 37 37 37 38 38 38 38 37 37 38 38 39 39 39 40 42 42 44 44 42 42 43 41 40 41 40 38 39 41 41 41 43 42 38 37 38 38 40 43 41 39 39
27 27 27 26 26 26 27 26 24 22 23 25 26 28 29 29 31 32 32 31 32 33 32 34 36 36 35 36 38 41 41 40 39 39 39 40 39 38 39 41 43 42 39 38 40 40 40 39 40 41 41 42 42 41 42 43 42 42 41 42 44 45 44 46 47 46 45 43 42 44 45 44 43 44 44 44 44 45 45 44 43 42 41 42 44 41 38 39
26 27 27 27 27 28 28 27 26 26 27 26 26 28 30 29 31 33 34 35 36 36 34 34 34 34 35 37 40 44 44 42 42 42 41 41 41 41 41 41 42 42 42 41 40 41 42 41 42 43 43 43 43 43 45 45 45 45 45 45 47 48 48 49 49 48 47 45 45 46 48 46 45 47 48 47 46 45 44 44 44 44 43 45 45 42 39 39
24 25 25 26 27 29 29 29 28 28 30 30 29 30 30 29 30 31 34 38 39 37 36 35 35 35 36 38 43 46 45 42 42 43 43 43 43 44 44 44 42 43 44 42 39 40 41 42 41 41 42 43 42 42 44 44 45 47 48 47 47 48 49 49 48 47 47 46 46 47 48 47 46 47 48 47 47 46 45 45 45 44 42 42 42 41 41 40
25 24 24 24 25 27 28 29 29 29 31 33 33 32 30 30 32 33 35 39 39 38 39 39 37 37 37 40 43 43 41 40 41 42 44 45 46 46 46 46 45 45 44 42 38 37 39 41 41 40 40 42 41 40 42 43 45 47 46 45 45 45 46 46 45 46 46 44 45 47 48 49 49 47 47 46 46 46 47 49 48 47 45 44 43 41 41 41
Wind_Direction
245 246 246 246 246 247 248 249 250 251 251 252 254 255 257 258 260 263 264 265 265 264 262 260 259 257 256 255 254 253 253 253 252 252 250 249 248 246 246 245 244 244 244 245 245 246 247 249 250 251 252 253 253 253 253 250 250 248 246 245 243 240 234 234 224 246 250 227 235 251 250 251 251 265 268 258 251 244 238 240 247 248 248 251 255 258 256 255
246 246 246 247 247 247 248 249 250 251 252 254 255 257 258 260 264 267 269 268 267 266 264 262 260 258 257 255 254 253 252 252 251 251 250 248 246 245 244 243 242 241 241 241 242 243 245 246 247 249 250 250 250 252 252 248 249 247 248 246 242 240 231 222 215 244 248 229 220 235 246 251 253 266 265 259 255 246 243 245 253 254 248 248 251 255 257 255
249 248 247 247 247 247 248 249 250 252 253 254 255 257 260 264 268 270 271 271 269 267 266 264 262 260 259 256 254 252 251 251 250 250 249 247 245 243 242 242 241 240 240 240 241 243 243 244 245 246 247 249 248 249 251 248 247 246 247 248 244 243 232 219 230 235 234 229 225 232 246 257 266 270 265 264 261 252 251 250 256 258 251 248 249 251 255 257
250 249 248 247 247 248 248 249 251 252 253 254 256 259 263 268 271 273 273 273 271 269 268 266 264 262 259 256 253 251 249 249 248 248 248 246 243 242 241 240 240 239 239 241 241 242 243 244 244 245 245 248 248 247 251 251 248 247 248 250 243 229 219 221 237 240 233 233 235 238 251 268 272 268 265 264 262 257 257 256 257 257 252 247 247 251 253 256
251 250 249 247 247 248 249 250 251 252 253 254 257 261 266 270 273 275 274 274 273 271 270 268 265 262 259 256 253 250 248 249 248 247 245 243 242 241 241 239 239 239 240 241 242 242 243 243 243 245 246 247 249 249 251 252 251 249 247 249 240 227 227 225 234 249 252 252 257 255 259 266 263 267 272 264 260 256 250 243 243 247 248 246 248 253 254 255
252 251 249 248 248 249 250 251 252 252 253 255 259 263 268 271 273 275 276 276 275 273 271 269 266 263 260 255 252 248 247 247 248 248 244 242 241 241 241 240 240 241 241 243 242 243 242 242 244 244 246 248 250 251 251 252 253 251 247 248 242 237 245 245 244 257 268 269 265 259 258 259 259 268 270 260 255 252 245 237 241 250 254 254 253 255 257 257
253 252 250 249 249 250 251 251 252 252 254 256 260 264 268 270 273 275 276 277 276 275 272 269 266 263 260 255 252 247 245 245 246 248 246 243 242 242 242 242 243 243 243 243 242 242 242 242 244 244 247 249 251 253 253 251 251 253 249 248 245 239 246 255 259 263 269 268 260 254 254 258 261 262 260 260 255 250 249 246 249 256 260 262 258 255 259 258
253 252 251 250 249 250 251 251 252 252 254 257 260 264 266 269 271 273 276 277 277 276 273 269 266 263 260 256 252 248 245 245 245 246 246 245 244 244 244 244 244 244 244 243 242 241 241 242 243 246 247 247 249 250 251 250 251 255 252 246 246 245 247 255 262 266 267 265 258 254 255 258 259 256 259 265 262 255 254 253 252 253 255 261 261 258 258 258
253 252 251 250 250 249 250 250 251 251 254 256 259 262 265 267 268 270 273 276 278 277 275 271 267 264 261 258 255 251 248 246 246 246 246 246 246 246 245 245 245 244 243 242 241 240 240 242 243 244 246 247 250 251 253 252 253 253 248 245 246 250 252 254 258 262 263 262 261 258 257 260 258 256 262 263 259 260 263 260 255 251 252 257 261 261 258 259
253 252 251 250 249 248 248 248 249 250 252 254 258 261 263 264 265 267 270 274 278 280 280 275 271 267 263 261 258 255 251 248 248 248 247 247 247 247 245 245 244 243 242 240 239 239 240 243 244 247 249 251 251 252 253 252 252 251 247 247 249 252 255 255 256 258 260 264 262 259 258 261 258 256 261 260 257 263 268 263 257 254 255 258 261 260 257 256
252 250 250 249 247 246 246 247 247 249 251 254 257 259 261 262 263 265 268 271 276 280 283 281 277 272 268 265 261 258 254 251 250 250 249 249 247 247 246 245 245 243 242 240 239 240 242 244 247 247 246 249 252 252 251 249 248 251 252 250 250 252 255 255 255 256 260 263 261 259 262 262 260 261 260 259 259 261 261 261 263 262 259 257 256 254 250 246
251 249 249 247 245 245 244 245 246 247 249 252 256 258 258 260 261 263 266 270 273 277 280 282 282 279 274 269 265 263 259 256 256 254 252 251 249 248 248 247 246 245 244 243 243 244 245 246 247 247 248 253 257 253 249 248 248 253 255 252 251 251 252 255 256 258 260 263 261 256 258 261 261 262 260 259 258 260 260 262 266 267 264 257 251 248 246 243
250 249 247 246 244 243 243 244 244 245 247 250 253 255 256 257 260 263 265 268 270 273 275 278 280 280 279 275 271 267 262 259 257 257 255 254 253 250 250 250 249 249 248 248 248 248 249 250 250 251 255 255 249 250 254 253 251 256 255 254 255 253 257 259 255 256 260 263 260 253 256 264 268 265 260 259 257 259 263 265 267 265 265 260 252 252 251 250
249 248 247 245 243 242 242 242 242 242 244 248 251 253 254 257 260 263 265 266 268 270 272 274 275 277 278 277 275 270 264 260 256 257 257 255 255 253 253 252 252 253 252 252 251 250 249 248 250 251 253 249 248 255 261 256 252 255 256 256 259 264 277 269 258 256 260 262 258 257 257 248 261 269 259 259 259 259 262 267 272 270 270 266 264 264 256 256
249 248 246 244 243 242 242 242 240 240 241 245 249 252 254 257 260 262 264 265 265 267 268 270 272 273 274 275 274 271 267 263 259 257 257 257 257 256 256 254 254 254 253 253 251 249 247 245 247 247 247 247 251 254 252 252 252 255 258 259 262 285 271 261 268 269 256 260 261 257 247 226 216 243 253 258 258 258 260 264 268 269 272 274 276 266 249 250
248 247 246 245 243 242 242 241 239 238 239 243 247 251 254 257 260 262 263 264 264 265 266 268 270 271 272 273 272 270 269 267 265 261 258 258 258 257 257 256 255 254 253 251 248 246 244 244 244 245 245 245 247 247 247 249 250 255 257 249 200 102 225 258 276 282 252 250 263 256 223 179 217 232 245 256 252 254 261 266 269 269 270 272 275 262 247 253
247 246 246 245 244 243 242 241 239 238 239 241 245 249 253 256 259 262 263 264 264 264 265 266 268 270 270 272 271 271 272 270 269 267 263 259 258 258 257 258 257 256 255 252 250 247 244 245 245 244 244 243 241 242 243 233 255 281 280 255 162 145 229 258 271 281 254 217 250 262 209 169 220 235 242 256 256 257 259 263 269 270 269 266 267 262 260 268
247 246 246 245 244 244 242 241 240 239 239 240 243 246 250 254 257 260 262 263 264 264 264 266 267 268 270 271 271 272 273 273 271 267 264 259 257 256 254 255 254 254 254 251 250 247 244 244 243 243 240 238 231 221 209 137 167 239 237 251 199 183 216 241 256 268 255 219 238 246 203 185 220 246 249 255 257 258 257 257 258 262 266 263 260 259 263 269
247 247 246 246 245 245 243 242 240 239 239 239 241 244 248 252 255 258 261 263 264 263 264 264 266 267 268 269 271 272 271 270 269 265 262 259 258 256 253 251 249 248 248 248 247 244 245 244 241 239 233 224 199 186 196 192 206 210 198 215 244 208 205 226 244 246 249 272 249 211 192 198 224 253 262 262 260 259 256 250 247 251 262 266 267 264 261 263
248 248 248 247 246 245 244 242 240 239 239 239 241 243 247 251 254 257 259 261 262 264 264 263 265 266 267 268 269 271 270 269 268 265 264 261 258 256 253 253 251 249 247 246 246 244 245 246 246 240 233 232 213 209 229 227 214 203 185 196 246 230 207 222 250 260 260 259 246 217 193 219 231 233 249 262 265 265 260 253 247 245 255 265 273 273 269 264
249 248 248 248 246 245 244 242 240 239 239 239 241 244 246 249 253 257 258 261 262 264 263 263 265 266 267 268 268 269 269 268 266 265 264 261 259 257 255 255 253 252 251 250 248 245 246 248 250 247 241 245 233 225 236 225 207 205 202 198 198 206 215 227 244 262 267 257 253 243 203 216 251 237 231 238 249 260 258 257 257 252 251 255 264 269 269 267
249 248 248 248 247 246 245 244 242 241 240 241 242 244 246 249 252 256 258 261 262 262 263 264 264 265 267 269 268 268 267 265 264 262 260 258 257 254 254 254 253 254 252 253 252 247 249 246 247 252 245 239 237 232 227 218 210 211 226 226 190 181 200 227 239 245 262 268 261 233 196 199 241 235 234 238 242 256 261 262 265 263 255 251 255 260 262 266
249 248 247 247 246 245 245 244 243 243 243 243 243 244 246 249 252 255 259 262 262 262 263 264 264 265 267 267 266 265 264 263 261 257 255 253 253 253 253 251 248 252 253 252 249 244 248 243 245 252 248 239 239 239 233 225 222 220 230 231 200 181 196 228 254 252 251 261 257 238 225 217 223 229 241 247 250 262 268 267 266 266 261 254 255 258 259 261
249 248 245 244 244 244 243 243 242 242 243 244 245 246 248 250 254 256 259 262 263 263 264 265 266 265 264 263 265 265 262 262 264 260 253 251 253 252 248 245 243 247 247 241 236 235 242 243 246 246 238 240 239 239 238 231 231 230 231 228 207 199 211 226 260 257 243 251 261 260 257 249 244 250 257 252 258 267 267 263 261 263 263 256 255 260 262 261
250 249 246 242 242 242 242 242 242 243 244 245 247 248 250 252 255 257 259 261 263 265 265 266 266 265 265 265 263 260 260 263 266 262 255 251 251 248 244 244 244 240 230 236 243 232 232 241 246 245 237 244 244 237 239 236 235 235 234 233 220 217 222 220 241 252 244 248 262 261 254 254 258 263 270 268 265 264 261 258 257 258 259 257 255 259 264 264
251 249 247 245 241 241 242 243 243 244 245 247 249 250 252 254 256 258 259 260 263 265 265 266 265 266 269 268 259 255 260 263 258 258 260 256 249 249 251 246 241 234 225 242 250 221 222 241 248 253 248 247 246 240 239 239 239 239 238 238 231 230 232 226 231 246 251 253 262 260 254 254 256 254 263 269 257 254 257 258 256 254 254 254 253 256 261 265
250 247 246 245 243 241 242 243 245 246 247 248 250 251 253 255 257 258 259 260 262 263 262 262 262 263 264 260 257 252 251 255 256 258 261 255 249 251 254 249 237 232 241 252 255 236 231 245 254 256 250 244 243 243 242 241 239 238 240 241 239 238 238 239 243 251 257 257 259 263 263 263 261 252 243 243 240 250 262 265 261 255 252 255 253 252 255 259
250 248 246 245 244 243 243 245 246 248 250 251 252 254 255 257 258 259 260 260 261 261 261 260 258 257 255 253 256 249 238 245 256 259 257 251 251 249 244 249 239 221 247 254 251 246 241 247 256 254 249 245 244 244 243 244 244 239 238 241 244 243 241 242 248 254 257 258 257 260 263 263 263 259 251 250 251 255 262 267 264 255 248 254 255 252 255 261
253 251 249 246 246 246 245 247 248 250 252 253 254 256 257 259 260 259 258 256 258 260 261 262 257 253 256 257 256 250 244 248 252 256 260 255 253 249 236 245 240 218 237 248 235 243 250 251 255 254 247 243 242 247 245 242 245 242 239 244 248 248 247 247 248 251 253 255 256 256 259 260 262 260 253 256 260 259 258 259 259 257 253 254 258 261 264 267
256 255 253 250 248 247 247 248 249 250 251 253 255 256 258 259 258 256 254 254 255 253 255 260 257 252 255 260 257 248 245 250 251 255 263 259 249 248 241 244 242 228 236 247 239 243 255 255 254 249 246 243 233 237 248 247 247 248 246 246 247 247 250 250 251 252 252 256 259 257 258 261 261 259 247 245 256 261 258 253 254 261 262 259 261 266 264 262
257 257 255 252 250 248 246 246 248 251 252 255 256 256 258 257 253 251 252 254 250 246 250 253 257 259 258 258 256 250 245 244 251 258 260 255 248 246 246 246 245 240 243 252 249 241 245 262 267 255 247 246 241 242 253 255 255 255 251 244 240 242 247 249 252 254 253 257 261 256 254 258 258 255 241 235 244 253 256 255 257 260 262 263 266 267 262 263
257 256 256 253 249 247 246 246 249 252 254 256 256 256 256 253 250 249 248 251 247 245 252 253 257 265 263 255 248 249 249 240 245 260 256 249 250 247 243 242 242 241 239 243 248 241 236 252 267 258 246 243 244 247 252 257 259 256 252 246 241 240 244 247 251 254 253 254 257 251 243 246 254 256 248 240 239 244 252 258 263 264 266 271 272 269 267 267
258 257 257 255 250 246 246 248 251 254 255 256 256 254 252 250 250 245 238 243 244 242 249 246 246 253 253 248 236 237 247 238 236 257 260 248 249 247 237 235 241 246 235 228 237 245 237 234 247 256 253 244 238 237 238 257 263 251 243 242 240 239 244 249 250 252 256 257 256 251 243 244 250 249 247 246 244 247 255 260 265 269 271 272 271 271 272 269
260 258 257 257 255 251 251 252 254 256 255 255 255 252 251 250 247 241 236 239 242 241 242 237 228 237 248 250 237 239 245 234 226 237 241 233 238 249 242 229 231 242 235 226 231 239 233 236 248 245 242 239 226 219 217 227 250 251 242 239 240 239 242 247 249 247 251 253 250 247 246 250 250 243 244 254 258 261 263 262 266 273 273 271 272 272 271 270
259 259 258 257 257 256 256 255 255 256 255 254 254 251 251 249 241 239 241 244 247 247 244 238 226 232 247 241 225 237 242 230 232 236 232 231 231 237 244 236 229 234 233 225 233 240 230 231 246 219 217 228 215 213 226 225 226 240 240 236 243 245 241 243 247 244 243 246 250 252 252 255 255 251 254 262 268 269 267 267 269 271 271 271 273 273 272 270
259 258 257 256 255 256 255 255 254 253 253 252 252 251 250 247 238 231 231 237 244 246 243 242 236 232 239 235 224 234 237 225 229 235 230 232 234 233 244 248 236 232 228 215 217 233 227 211 214 218 225 237 228 220 234 229 216 227 237 241 249 244 238 245 251 250 249 249 253 258 260 263 263 261 262 266 270 271 270 271 270 268 268 269 269 271 272 271
260 257 257 255 253 252 252 252 252 251 251 250 250 251 248 243 234 224 225 238 240 239 239 241 240 235 232 232 227 226 229 227 230 234 229 229 233 230 233 242 236 228 226 221 219 228 224 201 208 228 235 254 243 229 232 235 227 233 240 251 262 251 239 244 250 252 255 255 256 257 260 264 264 265 268 270 271 272 272 272 270 268 267 267 268 270 272 272
260 258 256 254 253 252 251 250 250 249 249 249 250 250 246 241 235 226 227 244 241 234 235 235 233 234 230 230 231 223 220 228 234 234 228 226 229 221 212 225 236 230 228 227 224 233 233 220 225 238 245 276 255 231 225 237 241 241 235 231 247 255 248 248 252 256 260 263 263 261 262 265 266 266 270 271 270 269 272 273 273 272 269 267 269 271 273 273
262 259 256 254 253 252 250 249 249 247 246 248 249 248 244 240 238 235 235 242 239 230 233 235 233 238 238 235 237 230 221 228 233 230 224 225 232 229 220 224 237 236 233 230 224 232 238 233 234 240 232 231 240 231 228 239 248 250 244 240 247 256 258 255 256 258 260 264 265 262 263 269 269 267 267 268 266 264 267 269 271 272 272 272 273 273 274 275
266 262 257 254 252 250 249 247 247 247 247 248 247 245 243 237 234 237 241 245 243 235 236 238 236 240 244 241 239 235 227 228 228 227 226 227 234 236 233 234 241 243 239 232 228 234 240 238 237 239 235 232 236 241 247 248 244 243 243 247 259 268 263 255 252 255 259 263 264 262 260 259 259 262 265 265 260 259 263 265 267 270 271 273 275 274 275 275
273 266 259 255 250 249 249 247 246 247 247 247 245 243 241 238 233 229 234 245 247 239 236 237 235 236 239 240 238 233 230 229 227 227 229 232 238 242 241 239 239 242 240 233 232 238 241 241 239 241 246 251 250 251 259 256 244 243 247 246 247 253 257 256 254 253 255 258 259 260 262 258 255 258 263 263 260 262 266 263 263 269 273 276 277 275 273 272
275 269 264 259 252 249 250 249 247 247 246 246 245 242 239 239 238 234 235 247 250 240 237 239 239 238 239 242 241 235 233 232 231 232 233 235 241 242 243 241 237 239 242 238 235 241 244 244 245 246 248 253 253 251 258 265 258 255 259 258 253 253 258 262 262 258 259 261 259 258 261 262 261 261 260 262 263 267 268 261 259 268 277 280 277 274 272 271
269 270 271 264 254 250 249 249 249 247 246 246 244 242 240 242 243 241 241 248 250 242 239 240 241 239 239 243 245 242 241 238 236 237 235 236 246 244 243 247 245 241 241 238 238 245 249 248 249 251 250 251 256 255 258 271 276 270 264 261 261 263 264 265 266 266 267 267 266 265 267 268 270 269 266 267 269 271 271 266 264 272 278 277 272 268 268 268
264 266 269 263 255 253 251 250 250 248 245 244 244 242 241 242 244 242 240 244 247 242 238 239 240 239 239 242 243 243 244 243 243 242 237 232 244 245 244 249 252 247 243 242 245 250 253 252 250 251 252 252 255 258 260 269 274 268 262 260 258 259 260 261 262 264 266 268 269 271 273 274 274 272 270 271 272 272 272 269 269 274 276 274 270 266 265 266
259 260 261 260 257 257 255 251 249 248 244 243 245 244 241 241 244 244 241 241 245 243 238 239 241 241 240 241 243 243 243 244 246 247 241 236 244 249 251 253 254 252 253 255 256 255 253 253 251 251 253 253 254 256 255 249 245 249 258 263 263 259 257 257 257 260 265 268 268 268 270 271 272 272 273 272 272 271 270 268 270 273 272 270 267 266 266 266
257 255 256 257 256 254 255 253 249 248 246 242 243 243 241 242 245 248 247 244 247 248 245 243 244 243 242 242 244 245 244 245 247 249 248 248 252 254 255 256 256 255 258 261 261 257 254 253 253 253 254 254 254 253 251 248 250 255 261 267 269 266 262 261 261 265 269 268 265 266 267 267 268 271 271 271 272 273 271 270 272 272 271 270 268 267 267 267
255 254 253 255 254 249 248 251 250 248 245 242 241 240 240 241 242 246 249 246 246 248 247 245 244 244 244 243 245 247 246 245 246 248 250 250 253 255 256 257 257 255 255 259 260 258 257 256 256 256 256 256 257 256 256 257 259 261 264 266 268 267 267 268 268 269 270 268 265 264 264 263 264 265 266 268 270 271 272 272 273 271 270 269 269 268 268 268
255 254 253 253 252 247 244 245 248 248 246 244 243 241 242 241 239 242 245 243 243 246 248 247 245 244 245 245 247 248 247 245 244 246 249 249 250 254 257 259 260 256 254 257 259 258 258 260 260 260 259 257 258 258 258 259 259 260 263 264 265 265 267 269 269 268 267 266 265 264 264 263 262 262 264 266 266 267 268 268 268 270 270 270 269 269 268 267
255 253 252 252 250 248 247 246 245 245 245 244 243 242 242 241 240 241 244 245 245 246 247 248 247 244 244 246 248 249 247 245 244 244 247 250 251 252 256 260 262 260 258 258 258 257 259 262 263 262 261 260 260 260 260 260 260 261 261 263 264 266 267 266 267 267 266 265 264 265 264 261 260 260 261 262 263 263 264 264 264 267 270 270 269 268 267 265
256 253 252 250 249 248 248 247 243 240 241 241 241 241 241 241 241 242 245 247 247 246 246 247 246 244 242 243 246 247 246 245 246 246 247 250 253 254 255 258 261 261 261 262 262 261 262 264 263 262 263 262 262 262 262 262 262 262 261 262 264 265 265 265 266 267 267 266 264 264 263 261 262 262 260 259 260 261 261 262 263 263 264 266 266 265 265 265
255 254 252 249 249 248 247 246 244 240 239 240 240 241 242 241 240 241 243 244 244 244 245 245 245 245 243 244 245 247 247 248 250 251 251 251 253 254 255 257 260 260 261 264 265 264 263 263 264 264 264 263 262 262 262 261 261 261 262 262 263 263 264 266 268 267 267 268 267 266 265 263 262 262 260 257 256 256 256 256 256 256 259 262 263 262 261 261
253 253 252 250 248 248 246 244 243 241 241 242 242 242 242 240 238 238 240 242 242 243 244 245 246 247 246 245 247 249 251 252 252 252 252 253 254 255 256 258 258 259 260 261 262 262 261 262 263 263 262 263 263 262 261 261 261 263 265 265 265 265 265 266 267 266 266 267 267 267 266 264 263 263 263 261 257 255 255 254 254 254 256 258 260 260 260 259
Height
5755 5755 5756 5756 5757 5757 5757 5758 5758 5758 5759 5759 5759 5759 5760 5760 5760 5760 5760 5760 5759 5759 5759 5759 5759 5759 5759 5759 5760 5760 5761 5761 5762 5763 5763 5764 5765 5766 5767 5768 5769 5770 5770 5771 5772 5772 5773 5774 5774 5775 5776 5777 5777 5777 5778 5779 5779 5780 5780 5781 5783 5784 5787 5788 5793 5795 5793 5797 5792 5783 5781 5781 5787 5789 5788 5789 5792 5795 5794 5794 5790 5788 5791 5793 5794 5795 5796 5796
5753 5753 5754 5754 5755 5755 5755 5756 5756 5756 5757 5757 5757 5757 5758 5758 5758 5758 5757 5757 5757 5757 5756 5756 5756 5756 5756 5757 5757 5758 5758 5759 5760 5760 5761 5762 5763 5763 5765 5765 5766 5767 5768 5769 5769 5770 5771 5772 5773 5773 5774 5775 5775 5776 5776 5777 5777 5778 5778 5779 5781 5782 5785 5787 5793 5793 5786 5788 5785 5779 5778 5780 5787 5789 5785 5786 5790 5791 5791 5791 5788 5786 5789 5792 5792 5792 5792 5792
5751 5751 5752 5752 5753 5753 5753 5754 5754 5754 5755 5755 5755 5755 5756 5756 5755 5755 5755 5755 5754 5754 5754 5754 5754 5754 5754 5754 5754 5755 5756 5756 5757 5758 5758 5759 5760 5761 5762 5763 5764 5765 5766 5766 5767 5769 5769 5770 5771 5772 5772 5773 5774 5774 5774 5775 5775 5776 5776 5777 5779 5782 5784 5786 5788 5784 5778 5779 5780 5779 5778 5781 5786 5785 5784 5786 5788 5789 5789 5790 5786 5784 5786 5788 5788 5788 5788 5788
5749 5749 5750 5750 5750 5751 5751 5752 5752 5752 5753 5753 5753 5753 5753 5753 5753 5753 5753 5752 5752 5751 5751 5751 5751 5751 5751 5751 5752 5752 5753 5754 5755 5755 5756 5757 5758 5759 5760 5761 5762 5762 5763 5764 5765 5766 5767 5768 5769 5770 5770 5771 5772 5772 5772 5773 5773 5774 5774 5776 5778 5780 5780 5782 5780 5774 5774 5778 5780 5780 5779 5783 5784 5780 5783 5785 5785 5787 5787 5788 5786 5783 5782 5784 5786 5786 5786 5787
5746 5747 5747 5748 5748 5749 5749 5749 5750 5750 5750 5751 5751 5751 5751 5751 5751 5751 5750 5750 5749 5749 5749 5749 5748 5748 5748 5749 5749 5750 5751 5752 5752 5753 5754 5754 5755 5756 5757 5758 5759 5760 5761 5762 5763 5764 5765 5766 5767 5768 5768 5769 5769 5769 5770 5770 5771 5772 5772 5774 5776 5775 5774 5775 5774 5769 5773 5777 5779 5780 5780 5782 5780 5779 5783 5783 5783 5785 5784 5785 5784 5782 5778 5780 5784 5784 5785 5786
5744 5745 5745 5746 5746 5746 5747 5747 5748 5748 5748 5749 5749 5749 5749 5749 5749 5748 5748 5747 5747 5747 5746 5746 5746 5746 5746 5746 5747 5747 5749 5749 5749 5750 5751 5752 5753 5754 5755 5756 5757 5758 5759 5760 5761 5762 5763 5764 5764 5765 5766 5766 5766 5767 5767 5768 5769 5769 5770 5772 5773 5773 5771 5772 5772 5769 5771 5775 5777 5778 5778 5778 5778 5781 5780 5779 5782 5781 5778 5779 5781 5779 5776 5778 5782 5783 5784 5784
5742 5742 5743 5743 5744 5744 5745 5745 5746 5746 5746 5747 5747 5747 5747 5747 5746 5746 5746 5745 5745 5745 5744 5744 5744 5744 5744 5744 5745 5745 5746 5747 5747 5748 5749 5750 5750 5751 5752 5753 5754 5755 5756 5757 5758 5759 5760 5761 5762 5762 5763 5764 5764 5764 5765 5766 5766 5767 5768 5769 5770 5770 5769 5769 5770 5770 5770 5773 5775 5775 5776 5776 5778 5779 5776 5777 5780 5776 5774 5777 5779 5778 5776 5777 5781 5782 5782 5782
5740 5740 5741 5741 5742 5742 5742 5743 5743 5744 5744 5745 5745 5745 5745 5745 5744 5744 5744 5743 5743 5743 5742 5742 5742 5742 5742 5742 5742 5743 5744 5745 5745 5746 5746 5747 5748 5749 5750 5751 5752 5752 5753 5754 5755 5756 5757 5758 5759 5760 5761 5761 5761 5762 5762 5763 5764 5765 5766 5767 5767 5767 5768 5768 5768 5769 5769 5770 5772 5773 5774 5775 5776 5776 5775 5776 5776 5772 5772 5775 5777 5776 5775 5776 5777 5779 5779 5780
5737 5738 5738 5739 5739 5740 5740 5741 5741 5742 5742 5743 5743 5743 5743 5743 5743 5742 5742 5742 5741 5741 5740 5740 5740 5740 5740 5740 5741 5741 5742 5743 5743 5744 5744 5745 5746 5746 5747 5748 5749 5750 5750 5751 5752 5754 5755 5755 5756 5757 5758 5758 5758 5759 5760 5761 5762 5762 5763 5764 5764 5765 5766 5766 5767 5768 5767 5769 5771 5771 5772 5773 5774 5774 5775 5775 5772 5771 5771 5770 5772 5772 5773 5774 5775 5776 5777 5778
5735 5736 5736 5737 5737 5738 5738 5739 5739 5740 5740 5741 5741 5741 5741 5741 5741 5741 5741 5740 5740 5739 5739 5739 5739 5739 5739 5739 5739 5740 5740 5741 5741 5741 5742 5743 5744 5744 5745 5746 5746 5747 5748 5749 5750 5751 5752 5752 5754 5754 5755 5756 5756 5756 5757 5759 5759 5759 5760 5762 5763 5763 5764 5765 5766 5766 5766 5767 5768 5769 5771 5771 5771 5773 5774 5771 5769 5773 5770 5765 5767 5770 5772 5774 5775 5775 5775 5776
5733 5733 5734 5734 5735 5735 5736 5737 5737 5738 5738 5739 5739 5739 5739 5739 5739 5739 5739 5739 5739 5738 5738 5737 5737 5737 5737 5737 5738 5738 5738 5739 5739 5740 5741 5741 5742 5742 5743 5744 5744 5745 5746 5747 5747 5748 5749 5750 5751 5752 5752 5752 5753 5754 5755 5756 5757 5756 5759 5761 5761 5761 5762 5763 5764 5764 5765 5766 5766 5767 5769 5769 5770 5772 5772 5767 5768 5773 5768 5763 5764 5768 5771 5773 5774 5774 5774 5774
5731 5731 5732 5732 5733 5733 5734 5735 5735 5736 5736 5737 5737 5737 5737 5737 5737 5738 5738 5737 5737 5737 5736 5736 5736 5736 5736 5736 5736 5737 5737 5737 5738 5738 5739 5739 5740 5741 5741 5742 5742 5743 5744 5745 5745 5746 5747 5748 5749 5749 5749 5751 5752 5752 5753 5754 5754 5755 5757 5758 5759 5759 5760 5761 5762 5762 5764 5764 5763 5766 5767 5767 5768 5770 5769 5765 5768 5770 5766 5763 5765 5765 5768 5770 5770 5771 5771 5772
5729 5729 5730 5730 5731 5731 5732 5733 5733 5734 5734 5735 5735 5735 5735 5736 5736 5736 5736 5736 5736 5735 5735 5735 5735 5735 5735 5735 5735 5736 5736 5736 5736 5737 5737 5738 5738 5739 5740 5740 5741 5742 5742 5743 5744 5745 5745 5746 5747 5747 5748 5750 5750 5749 5751 5752 5753 5754 5755 5756 5757 5758 5758 5759 5759 5760 5762 5761 5760 5763 5766 5766 5767 5768 5765 5763 5766 5768 5764 5762 5763 5762 5764 5767 5767 5767 5768 5768
5727 5727 5728 5728 5729 5729 5730 5731 5731 5732 5732 5733 5733 5733 5734 5734 5734 5734 5734 5734 5734 5734 5734 5734 5734 5734 5734 5734 5734 5734 5734 5735 5735 5735 5736 5736 5737 5737 5738 5739 5739 5740 5741 5741 5742 5743 5744 5744 5745 5745 5746 5747 5747 5748 5750 5751 5752 5753 5754 5755 5755 5757 5758 5756 5755 5759 5761 5758 5757 5762 5765 5765 5767 5767 5761 5760 5765 5766 5764 5760 5759 5758 5759 5764 5766 5765 5766 5766
5725 5725 5726 5726 5727 5727 5728 5729 5729 5730 5730 5731 5731 5732 5732 5732 5732 5732 5733 5732 5733 5733 5733 5732 5732 5733 5733 5733 5733 5733 5733 5733 5734 5734 5735 5735 5735 5736 5737 5737 5738 5739 5739 5740 5740 5741 5742 5742 5743 5744 5744 5745 5746 5747 5748 5749 5750 5751 5752 5754 5755 5757 5758 5754 5753 5758 5760 5756 5754 5760 5764 5765 5769 5768 5759 5759 5763 5764 5763 5760 5758 5757 5758 5762 5765 5765 5766 5766
5723 5723 5724 5724 5725 5725 5726 5727 5727 5728 5728 5729 5729 5730 5730 5731 5731 5731 5731 5731 5731 5731 5731 5731 5731 5731 5731 5732 5732 5732 5732 5732 5733 5733 5733 5734 5734 5735 5735 5736 5736 5737 5738 5738 5739 5739 5740 5741 5741 5742 5743 5744 5745 5745 5747 5748 5749 5750 5751 5752 5754 5757 5759 5756 5752 5755 5758 5755 5753 5757 5762 5765 5768 5764 5757 5757 5761 5762 5763 5761 5757 5757 5758 5760 5763 5763 5764 5765
5720 5721 5721 5722 5723 5723 5724 5725 5725 5726 5726 5727 5728 5728 5728 5729 5729 5729 5729 5729 5729 5729 5729 5729 5730 5730 5730 5730 5730 5730 5731 5731 5731 5732 5732 5732 5733 5733 5734 5734 5735 5736 5736 5737 5737 5738 5739 5739 5740 5741 5742 5742 5743 5745 5746 5747 5749 5751 5751 5752 5754 5757 5760 5758 5753 5753 5756 5755 5753 5755 5760 5763 5763 5759 5756 5757 5759 5760 5762 5761 5756 5755 5757 5759 5761 5762 5762 5763
5718 5719 5719 5720 5720 5721 5722 5722 5723 5724 5724 5725 5726 5726 5726 5727 5727 5727 5727 5727 5727 5728 5728 5728 5728 5728 5728 5729 5729 5729 5729 5729 5730 5730 5731 5731 5732 5732 5733 5733 5734 5734 5735 5735 5736 5737 5738 5738 5739 5740 5740 5741 5743 5744 5745 5747 5750 5751 5751 5752 5754 5756 5759 5759 5756 5753 5753 5753 5753 5755 5757 5759 5759 5757 5755 5755 5756 5758 5760 5760 5757 5754 5754 5757 5760 5762 5762 5761
5716 5717 5717 5718 5718 5719 5720 5720 5721 5722 5722 5723 5723 5724 5724 5724 5725 5725 5725 5726 5726 5726 5726 5726 5726 5726 5726 5727 5727 5728 5728 5728 5729 5729 5729 5730 5730 5731 5731 5732 5733 5733 5734 5734 5735 5736 5737 5737 5738 5739 5739 5740 5742 5742 5743 5744 5746 5747 5749 5752 5754 5754 5757 5758 5755 5751 5751 5753 5753 5754 5756 5759 5759 5757 5755 5754 5754 5755 5758 5758 5757 5754 5752 5753 5756 5758 5760 5760
5714 5715 5715 5716 5716 5717 5717 5718 5719 5719 5720 5721 5721 5721 5722 5722 5722 5723 5723 5723 5724 5724 5724 5724 5725 5724 5724 5725 5726 5726 5726 5727 5727 5728 5728 5729 5729 5729 5730 5730 5731 5732 5732 5733 5734 5735 5736 5736 5736 5737 5738 5739 5740 5740 5741 5741 5742 5745 5746 5749 5752 5753 5755 5756 5753 5750 5750 5752 5753 5754 5757 5759 5759 5757 5757 5757 5754 5752 5754 5756 5755 5755 5753 5751 5751 5751 5754 5756
5712 5713 5713 5713 5714 5714 5715 5716 5717 5717 5718 5718 5719 5719 5720 5720 5720 5721 5721 5721 5722 5722 5722 5723 5723 5723 5723 5724 5724 5725 5725 5725 5726 5726 5727 5727 5727 5728 5729 5729 5730 5730 5731 5732 5732 5733 5734 5735 5735 5736 5737 5738 5739 5739 5740 5741 5742 5743 5744 5746 5749 5751 5755 5755 5751 5747 5746 5749 5752 5751 5754 5756 5757 5757 5757 5756 5753 5750 5752 5754 5754 5755 5755 5754 5752 5749 5749 5751
5710 5711 5711 5711 5712 5712 5713 5714 5714 5715 5715 5716 5716 5717 5718 5718 5718 5719 5719 5719 5720 5720 5720 5721 5721 5721 5721 5722 5723 5723 5723 5723 5724 5725 5725 5726 5726 5726 5727 5728 5728 5729 5729 5730 5731 5732 5733 5734 5734 5734 5736 5737 5737 5738 5739 5739 5740 5742 5742 5743 5746 5748 5752 5752 5748 5746 5745 5746 5748 5748 5750 5753 5755 5756 5753 5752 5751 5749 5750 5752 5752 5754 5754 5754 5753 5749 5748 5749
5708 5709 5709 5709 5710 5710 5711 5711 5712 5713 5713 5714 5714 5715 5715 5716 5716 5716 5716 5717 5717 5718 5718 5719 5719 5719 5719 5720 5721 5721 5721 5721 5722 5723 5724 5724 5724 5725 5726 5726 5727 5727 5728 5728 5729 5731 5732 5732 5732 5732 5734 5734 5735 5736 5737 5738 5739 5740 5741 5742 5744 5745 5749 5750 5747 5746 5746 5744 5745 5746 5746 5749 5750 5751 5750 5749 5749 5748 5748 5749 5749 5751 5752 5753 5752 5748 5747 5748
5706 5706 5707 5707 5708 5708 5709 5709 5710 5710 5711 5712 5712 5713 5713 5713 5714 5714 5714 5715 5715 5716 5716 5717 5717 5717 5717 5718 5719 5719 5719 5719 5720 5720 5722 5722 5722 5724 5724 5725 5726 5726 5726 5727 5728 5729 5730 5730 5729 5731 5732 5732 5733 5734 5735 5737 5737 5738 5739 5740 5742 5743 5747 5748 5744 5742 5743 5743 5743 5744 5744 5745 5746 5746 5747 5748 5747 5745 5746 5746 5747 5748 5749 5750 5750 5747 5745 5747
5704 5704 5705 5705 5706 5706 5707 5707 5708 5708 5709 5709 5710 5711 5711 5711 5712 5712 5712 5712 5713 5713 5714 5714 5715 5714 5715 5716 5717 5717 5717 5717 5718 5717 5719 5721 5721 5722 5722 5723 5724 5725 5725 5727 5727 5729 5729 5727 5727 5730 5730 5731 5732 5733 5734 5734 5735 5736 5737 5738 5739 5740 5742 5743 5740 5738 5740 5742 5742 5742 5742 5743 5743 5744 5745 5746 5744 5743 5743 5744 5744 5746 5747 5748 5748 5747 5744 5744
5702 5702 5703 5703 5704 5704 5705 5705 5706 5706 5706 5707 5708 5708 5709 5709 5710 5710 5710 5710 5710 5711 5711 5712 5712 5712 5713 5714 5715 5714 5715 5716 5715 5715 5716 5719 5719 5719 5720 5721 5723 5723 5724 5725 5726 5727 5726 5724 5725 5728 5728 5729 5730 5730 5731 5732 5733 5734 5734 5735 5736 5736 5737 5738 5737 5737 5738 5741 5740 5739 5739 5741 5741 5743 5744 5744 5743 5741 5740 5742 5743 5743 5744 5745 5746 5746 5744 5742
5700 5700 5701 5701 5702 5702 5703 5703 5703 5704 5704 5705 5705 5706 5706 5707 5707 5708 5707 5707 5707 5708 5708 5710 5711 5711 5711 5711 5712 5713 5714 5713 5712 5712 5715 5716 5716 5717 5718 5719 5721 5722 5722 5722 5724 5724 5723 5722 5724 5726 5727 5727 5728 5728 5729 5730 5731 5732 5732 5733 5733 5733 5735 5735 5735 5736 5737 5738 5737 5736 5737 5738 5739 5741 5741 5741 5741 5739 5738 5740 5741 5741 5742 5742 5743 5743 5742 5741
5697 5698 5699 5699 5700 5700 5700 5701 5701 5701 5702 5702 5703 5703 5704 5704 5705 5705 5705 5705 5705 5706 5706 5707 5709 5709 5708 5709 5710 5711 5711 5711 5711 5710 5712 5714 5714 5715 5716 5717 5718 5721 5720 5720 5722 5721 5721 5721 5722 5724 5725 5725 5726 5726 5727 5728 5729 5729 5729 5730 5730 5731 5732 5733 5734 5734 5734 5734 5734 5735 5735 5735 5736 5738 5738 5737 5737 5737 5737 5737 5738 5739 5739 5739 5740 5739 5740 5740
5695 5695 5696 5697 5697 5697 5698 5698 5699 5699 5699 5700 5700 5701 5701 5702 5702 5703 5703 5702 5703 5704 5704 5705 5706 5706 5706 5707 5708 5709 5709 5710 5710 5709 5710 5712 5712 5713 5714 5714 5716 5717 5718 5718 5719 5719 5719 5718 5719 5721 5722 5723 5724 5725 5725 5726 5727 5726 5726 5727 5728 5729 5730 5731 5731 5731 5731 5730 5731 5733 5734 5733 5733 5735 5736 5735 5733 5734 5735 5735 5734 5736 5737 5736 5736 5737 5738 5739
5692 5693 5693 5694 5694 5695 5695 5696 5696 5696 5697 5697 5698 5698 5699 5699 5700 5700 5700 5701 5702 5703 5702 5702 5703 5703 5704 5705 5706 5707 5707 5708 5708 5707 5708 5710 5711 5712 5712 5712 5714 5715 5715 5716 5717 5718 5717 5716 5717 5719 5720 5721 5722 5723 5722 5723 5724 5723 5724 5725 5726 5727 5728 5728 5727 5728 5728 5727 5729 5732 5732 5731 5731 5732 5734 5733 5731 5732 5733 5732 5731 5732 5733 5733 5734 5736 5736 5736
5690 5690 5691 5691 5691 5692 5693 5693 5693 5694 5694 5695 5695 5696 5696 5697 5697 5698 5698 5699 5701 5700 5700 5701 5701 5701 5702 5703 5703 5704 5705 5706 5705 5705 5706 5708 5708 5710 5710 5711 5712 5713 5713 5714 5716 5716 5715 5714 5715 5716 5717 5718 5719 5719 5720 5720 5721 5721 5722 5723 5724 5725 5725 5724 5724 5725 5725 5725 5727 5729 5729 5728 5728 5729 5730 5729 5728 5729 5730 5729 5730 5730 5730 5730 5733 5734 5733 5733
5687 5688 5688 5688 5689 5689 5690 5691 5691 5692 5692 5693 5693 5693 5694 5694 5695 5696 5697 5698 5698 5698 5698 5699 5699 5699 5700 5701 5702 5702 5703 5704 5703 5703 5704 5705 5706 5707 5708 5709 5709 5711 5712 5713 5713 5713 5713 5713 5714 5714 5714 5715 5716 5717 5718 5719 5719 5719 5720 5721 5721 5722 5721 5721 5722 5723 5723 5724 5725 5726 5726 5726 5726 5726 5726 5726 5726 5727 5727 5727 5727 5728 5728 5729 5730 5730 5730 5730
5684 5685 5685 5685 5686 5687 5687 5688 5688 5689 5690 5690 5690 5691 5691 5692 5693 5695 5696 5696 5696 5696 5697 5698 5698 5698 5698 5699 5700 5700 5701 5702 5702 5702 5703 5703 5704 5704 5706 5707 5707 5709 5710 5710 5711 5710 5711 5713 5713 5713 5713 5712 5713 5715 5716 5718 5718 5717 5718 5718 5718 5718 5718 5719 5720 5721 5721 5722 5722 5722 5723 5723 5724 5724 5723 5722 5723 5724 5725 5725 5724 5725 5726 5727 5727 5726 5727 5728
5681 5682 5682 5683 5683 5684 5684 5685 5686 5686 5687 5687 5688 5688 5688 5690 5692 5693 5694 5694 5695 5695 5695 5696 5697 5697 5697 5698 5699 5699 5699 5701 5701 5702 5702 5702 5703 5703 5703 5705 5706 5708 5708 5708 5709 5709 5710 5711 5711 5712 5712 5711 5712 5713 5714 5716 5716 5715 5716 5716 5715 5716 5717 5717 5718 5718 5719 5719 5719 5719 5720 5721 5722 5721 5720 5720 5720 5722 5723 5722 5722 5722 5722 5723 5723 5723 5724 5725
5678 5678 5679 5680 5680 5680 5681 5682 5682 5683 5684 5684 5685 5685 5686 5688 5690 5691 5692 5693 5693 5693 5694 5695 5696 5697 5696 5697 5699 5698 5698 5699 5700 5700 5701 5701 5702 5702 5702 5703 5704 5705 5705 5707 5708 5707 5708 5710 5710 5711 5711 5710 5711 5711 5712 5713 5714 5715 5715 5714 5714 5714 5715 5715 5716 5716 5716 5717 5717 5718 5718 5719 5719 5718 5718 5718 5718 5719 5719 5719 5719 5719 5719 5719 5720 5719 5720 5721
5674 5675 5676 5676 5677 5677 5678 5679 5679 5680 5680 5681 5682 5682 5684 5686 5688 5689 5690 5690 5691 5691 5692 5693 5693 5694 5695 5696 5697 5697 5697 5698 5697 5698 5699 5699 5700 5701 5702 5702 5701 5702 5703 5705 5706 5705 5706 5708 5709 5708 5708 5708 5709 5710 5710 5711 5712 5712 5712 5713 5713 5712 5713 5713 5713 5714 5714 5715 5715 5716 5717 5717 5716 5716 5716 5716 5716 5716 5715 5716 5716 5715 5715 5716 5716 5716 5717 5717
5670 5671 5672 5673 5673 5674 5674 5675 5676 5676 5677 5678 5678 5680 5682 5684 5685 5686 5687 5688 5688 5688 5689 5690 5690 5691 5692 5692 5694 5695 5695 5695 5695 5696 5697 5698 5699 5701 5702 5700 5699 5699 5700 5701 5702 5702 5703 5705 5705 5705 5706 5707 5707 5707 5708 5709 5709 5710 5711 5712 5711 5710 5711 5711 5711 5712 5712 5713 5713 5714 5715 5715 5714 5714 5713 5713 5714 5713 5712 5712 5712 5712 5712 5712 5712 5712 5713 5714
5665 5667 5668 5668 5669 5670 5671 5671 5672 5673 5674 5674 5675 5677 5679 5681 5682 5683 5685 5685 5685 5685 5687 5688 5688 5688 5689 5689 5690 5692 5692 5692 5693 5694 5695 5697 5697 5698 5700 5698 5696 5696 5697 5698 5700 5700 5701 5702 5702 5703 5705 5707 5706 5705 5706 5707 5707 5708 5709 5710 5709 5709 5709 5709 5709 5710 5710 5710 5711 5712 5712 5713 5712 5711 5711 5711 5711 5710 5710 5709 5709 5709 5709 5709 5709 5709 5710 5711
5661 5662 5664 5664 5666 5667 5667 5668 5668 5669 5670 5671 5673 5675 5676 5678 5679 5680 5681 5682 5681 5683 5684 5685 5686 5686 5686 5687 5688 5689 5690 5690 5691 5692 5693 5695 5694 5693 5695 5695 5693 5694 5695 5696 5698 5698 5698 5699 5700 5701 5703 5705 5705 5704 5704 5706 5706 5707 5707 5707 5707 5707 5707 5708 5708 5708 5708 5709 5709 5709 5710 5711 5709 5709 5708 5708 5708 5708 5707 5707 5707 5706 5706 5707 5707 5707 5707 5708
5657 5658 5659 5660 5662 5663 5662 5663 5664 5665 5666 5668 5670 5672 5673 5675 5676 5678 5679 5677 5677 5679 5680 5681 5683 5683 5684 5685 5685 5687 5688 5688 5689 5690 5691 5691 5690 5689 5692 5692 5690 5691 5692 5694 5695 5695 5695 5696 5698 5699 5700 5701 5702 5702 5702 5704 5704 5704 5705 5705 5705 5705 5705 5705 5706 5706 5707 5706 5706 5707 5708 5708 5706 5705 5706 5705 5705 5705 5705 5704 5704 5703 5704 5705 5705 5705 5705 5705
5654 5654 5654 5657 5659 5658 5658 5659 5660 5661 5663 5665 5667 5669 5670 5671 5672 5674 5674 5673 5674 5676 5677 5677 5679 5679 5680 5681 5682 5683 5685 5685 5686 5687 5687 5688 5686 5686 5687 5687 5688 5689 5689 5691 5693 5692 5692 5694 5696 5697 5698 5698 5699 5700 5700 5700 5700 5701 5702 5702 5703 5703 5703 5702 5703 5704 5704 5704 5704 5703 5704 5704 5703 5703 5704 5703 5702 5702 5703 5702 5700 5699 5702 5703 5702 5702 5702 5702
5652 5651 5650 5653 5655 5654 5654 5655 5656 5658 5659 5661 5663 5665 5666 5667 5668 5670 5670 5670 5671 5673 5673 5674 5675 5676 5677 5677 5678 5680 5681 5681 5683 5683 5684 5685 5683 5682 5682 5682 5684 5686 5686 5688 5689 5687 5689 5691 5693 5694 5695 5695 5696 5698 5698 5697 5697 5699 5700 5700 5700 5700 5700 5700 5701 5701 5701 5701 5701 5701 5701 5700 5700 5701 5702 5700 5699 5699 5700 5699 5695 5696 5700 5701 5699 5699 5699 5699
5649 5647 5648 5650 5651 5650 5651 5651 5653 5654 5656 5658 5660 5661 5662 5663 5665 5666 5667 5667 5668 5669 5671 5671 5671 5672 5674 5674 5675 5677 5677 5677 5679 5680 5681 5681 5679 5678 5678 5678 5680 5683 5683 5685 5684 5685 5687 5689 5691 5691 5692 5693 5693 5695 5696 5694 5694 5696 5697 5697 5697 5697 5698 5698 5698 5698 5697 5698 5698 5699 5698 5697 5696 5698 5698 5697 5697 5696 5697 5696 5692 5692 5697 5697 5696 5696 5696 5696
5645 5645 5645 5646 5647 5647 5647 5649 5650 5651 5653 5655 5655 5657 5659 5659 5660 5662 5663 5664 5664 5665 5667 5666 5667 5669 5670 5670 5671 5673 5673 5674 5675 5676 5678 5678 5675 5674 5674 5675 5677 5678 5679 5680 5681 5683 5685 5686 5687 5688 5688 5690 5691 5693 5694 5693 5692 5691 5690 5691 5693 5693 5694 5694 5694 5693 5694 5695 5695 5695 5695 5694 5693 5693 5694 5694 5694 5693 5693 5692 5688 5689 5692 5692 5692 5692 5693 5693
5642 5641 5641 5642 5644 5644 5644 5645 5646 5647 5649 5651 5651 5653 5654 5655 5656 5658 5658 5659 5660 5661 5661 5662 5664 5665 5666 5667 5667 5668 5669 5671 5671 5672 5673 5673 5671 5671 5671 5672 5673 5674 5675 5677 5679 5681 5682 5681 5683 5684 5684 5686 5688 5690 5690 5689 5687 5686 5685 5687 5688 5689 5690 5690 5689 5689 5690 5691 5691 5691 5692 5691 5689 5689 5689 5689 5689 5689 5690 5688 5685 5685 5688 5688 5687 5688 5688 5689
5638 5637 5637 5638 5640 5641 5641 5642 5643 5643 5645 5647 5647 5648 5650 5651 5653 5653 5653 5655 5656 5656 5657 5659 5660 5661 5662 5663 5663 5663 5665 5667 5667 5667 5668 5669 5668 5667 5667 5668 5669 5671 5673 5673 5674 5676 5676 5676 5678 5679 5680 5682 5683 5684 5684 5683 5682 5683 5683 5684 5685 5685 5686 5686 5686 5686 5687 5687 5687 5688 5688 5687 5686 5685 5684 5683 5683 5684 5684 5684 5681 5681 5682 5682 5683 5683 5683 5683
5633 5633 5634 5634 5635 5637 5638 5638 5639 5640 5642 5642 5642 5644 5646 5647 5649 5649 5649 5651 5651 5650 5651 5654 5656 5656 5658 5660 5659 5660 5662 5663 5663 5664 5664 5665 5664 5662 5662 5663 5664 5667 5670 5669 5669 5671 5671 5672 5674 5674 5675 5677 5678 5679 5679 5679 5679 5679 5680 5680 5681 5681 5681 5681 5682 5683 5683 5681 5683 5685 5683 5682 5684 5682 5680 5679 5679 5679 5679 5680 5678 5676 5676 5677 5677 5679 5679 5678
5628 5629 5630 5630 5632 5633 5634 5634 5635 5636 5637 5638 5639 5640 5641 5643 5645 5645 5645 5646 5645 5645 5647 5649 5650 5652 5654 5655 5655 5656 5657 5658 5659 5659 5659 5660 5660 5659 5659 5658 5658 5661 5665 5665 5664 5666 5666 5667 5668 5669 5670 5671 5672 5673 5674 5674 5674 5674 5675 5676 5676 5675 5676 5676 5676 5678 5677 5676 5677 5679 5678 5678 5680 5679 5676 5676 5675 5675 5675 5675 5674 5672 5672 5671 5671 5674 5674 5673
5623 5624 5625 5627 5628 5628 5629 5630 5632 5633 5633 5634 5635 5636 5637 5638 5640 5640 5640 5641 5641 5641 5643 5644 5645 5648 5650 5651 5650 5650 5650 5652 5653 5655 5655 5655 5655 5656 5656 5654 5653 5656 5659 5659 5659 5660 5661 5662 5662 5663 5664 5665 5667 5667 5667 5667 5668 5669 5670 5671 5670 5670 5671 5670 5669 5671 5671 5670 5672 5672 5671 5673 5674 5672 5671 5671 5671 5670 5670 5670 5670 5669 5668 5666 5666 5668 5669 5667
5619 5620 5621 5622 5623 5623 5625 5626 5628 5628 5629 5629 5630 5631 5632 5634 5635 5636 5636 5635 5635 5636 5638 5638 5640 5642 5644 5645 5644 5642 5643 5646 5648 5650 5651 5651 5651 5652 5652 5651 5651 5651 5653 5654 5654 5655 5656 5656 5656 5657 5658 5659 5661 5661 5661 5661 5661 5662 5664 5665 5665 5664 5664 5663 5664 5665 5665 5665 5666 5665 5664 5667 5668 5665 5664 5665 5666 5666 5665 5665 5664 5664 5663 5661 5661 5663 5663 5662
5615 5615 5616 5618 5618 5619 5620 5622 5623 5623 5623 5624 5625 5626 5627 5629 5630 5631 5631 5629 5629 5631 5632 5633 5634 5636 5639 5639 5637 5635 5638 5642 5644 5645 5645 5646 5646 5646 5647 5647 5648 5648 5648 5649 5650 5650 5650 5650 5650 5651 5652 5653 5654 5654 5654 5654 5654 5655 5657 5658 5658 5658 5657 5658 5659 5659 5658 5658 5658 5657 5658 5660 5659 5656 5657 5659 5659 5659 5659 5658 5657 5657 5657 5656 5656 5657 5657 5657
5610 5611 5612 5613 5614 5614 5615 5616 5617 5617 5618 5619 5621 5622 5623 5624 5624 5625 5623 5622 5624 5627 5627 5628 5630 5632 5633 5632 5630 5631 5635 5638 5638 5639 5640 5640 5641 5641 5642 5643 5643 5643 5644 5645 5645 5645 5645 5645 5645 5646 5646 5647 5648 5648 5648 5647 5647 5649 5651 5652 5652 5652 5651 5652 5653 5652 5652 5651 5650 5650 5650 5650 5650 5650 5651 5651 5651 5652 5652 5651 5651 5652 5651 5651 5651 5652 5652 5650